| time (UTC) | temp F | wind direction | speed MPH | gust MPH | rain 1hr in | rain 24hr in | rain mn in | humidity % | barometer mb |
| 20260904223900 | 60 | 160 | 0.0 | 1.0 | 0.00 | 0.03 | 0.03 | 71 | 1017.3 |
| 20260904223400 | 59 | 113 | 0.0 | 1.0 | 0.00 | 0.03 | 0.03 | 69 | 1017.4 |
| 20260904222849 | 59 | 107 | 0.0 | 2.0 | 0.00 | 0.03 | 0.03 | 69 | 1017.2 |
| 20260904222344 | 59 | 106 | 0.0 | 2.0 | 0.00 | 0.03 | 0.03 | 72 | 1017.2 |
| 20260904221839 | 59 | 79 | 0.0 | 0.0 | 0.00 | 0.03 | 0.03 | 74 | 1017.2 |
| 20260904221338 | 59 | 79 | 0.0 | 2.0 | 0.00 | 0.03 | 0.03 | 74 | 1017.0 |
| 20260904220839 | 59 | 79 | 0.0 | 2.0 | 0.00 | 0.03 | 0.03 | 75 | 1017.2 |
| 20260904220339 | 59 | 63 | 0.0 | 2.0 | 0.00 | 0.03 | 0.03 | 75 | 1017.3 |
| 20260904215839 | 58 | 63 | 0.0 | 2.0 | 0.00 | 0.03 | 0.03 | 77 | 1017.4 |
| 20260904215339 | 58 | 240 | 0.0 | 0.0 | 0.00 | 0.03 | 0.03 | 79 | 1017.3 |
| 20260904214835 | 58 | 240 | 0.0 | 0.0 | 0.00 | 0.03 | 0.03 | 78 | 1017.5 |
| 20260904214325 | 58 | 240 | 0.0 | 0.0 | 0.00 | 0.04 | 0.03 | 76 | 1017.4 |
| 20260904213827 | 58 | 240 | 0.0 | 1.0 | 0.00 | 0.04 | 0.03 | 76 | 1017.4 |
| 20260904213325 | 58 | 240 | 0.0 | 2.0 | 0.00 | 0.04 | 0.03 | 76 | 1017.3 |
| 20260904212820 | 58 | 240 | 0.0 | 2.0 | 0.00 | 0.04 | 0.03 | 77 | 1017.3 |
| 20260904212310 | 58 | 242 | 0.0 | 1.0 | 0.00 | 0.04 | 0.03 | 80 | 1017.2 |
| 20260904211811 | 57 | 242 | 0.0 | 2.0 | 0.00 | 0.04 | 0.03 | 79 | 1017.3 |
| 20260904211310 | 57 | 242 | 0.0 | 2.0 | 0.00 | 0.04 | 0.03 | 80 | 1017.2 |
| 20260904210808 | 57 | 98 | 0.0 | 1.0 | 0.00 | 0.04 | 0.03 | 81 | 1016.8 |
| 20260904210527 | 57 | 99 | 0.0 | 3.0 | 0.00 | 0.04 | 0.03 | 81 | 1016.8 |
| 20260904205756 | 58 | 99 | 0.0 | 3.0 | 0.00 | 0.04 | 0.03 | 80 | 1016.6 |
| 20260904205256 | 58 | 216 | 0.0 | 0.0 | 0.00 | 0.04 | 0.03 | 79 | 1016.7 |
| 20260904204756 | 57 | 216 | 0.0 | 3.0 | 0.00 | 0.04 | 0.03 | 77 | 1016.7 |
| 20260904204519 | 57 | 216 | 0.0 | 3.0 | 0.00 | 0.04 | 0.03 | 77 | 1016.6 |
| 20260904203751 | 57 | 221 | 0.0 | 2.0 | 0.00 | 0.05 | 0.03 | 80 | 1016.7 |
| 20260904203513 | 57 | 264 | 0.0 | 1.0 | 0.00 | 0.05 | 0.03 | 78 | 1016.6 |
| 20260904202743 | 56 | 268 | 0.0 | 0.0 | 0.00 | 0.07 | 0.03 | 83 | 1016.7 |
| 20260904202231 | 56 | 268 | 0.0 | 0.0 | 0.00 | 0.08 | 0.03 | 84 | 1016.8 |
| 20260904201727 | 56 | 268 | 0.0 | 4.0 | 0.00 | 0.08 | 0.03 | 82 | 1016.8 |
| 20260904201217 | 56 | 269 | 0.0 | 4.0 | 0.00 | 0.08 | 0.03 | 83 | 1016.8 |
| 20260904200937 | 55 | 132 | 0.0 | 3.0 | 0.00 | 0.08 | 0.03 | 89 | 1016.7 |
| 20260904200215 | 54 | 105 | 0.0 | 3.0 | 0.00 | 0.08 | 0.03 | 90 | 1016.8 |
| 20260904195934 | 54 | 103 | 0.0 | 1.0 | 0.00 | 0.08 | 0.03 | 89 | 1016.7 |
| 20260904195207 | 54 | 102 | 0.0 | 2.0 | 0.00 | 0.08 | 0.03 | 90 | 1016.7 |
| 20260904194707 | 54 | 102 | 0.0 | 2.0 | 0.00 | 0.10 | 0.03 | 91 | 1016.8 |
| 20260904194205 | 54 | 166 | 0.0 | 1.0 | 0.00 | 0.10 | 0.03 | 91 | 1016.7 |
| 20260904193658 | 54 | 209 | 0.0 | 0.0 | 0.00 | 0.11 | 0.03 | 92 | 1016.7 |
| 20260904193148 | 53 | 209 | 0.0 | 0.0 | 0.00 | 0.14 | 0.03 | 93 | 1016.7 |
| 20260904192905 | 53 | 209 | 0.0 | 0.0 | 0.00 | 0.16 | 0.03 | 93 | 1016.8 |
| 20260904192405 | 53 | 209 | 0.0 | 1.0 | 0.00 | 0.16 | 0.03 | 93 | 1016.8 |
| 20260904191643 | 53 | 209 | 0.0 | 1.0 | 0.00 | 0.16 | 0.03 | 94 | 1016.7 |
| 20260904191144 | 53 | 209 | 0.0 | 0.0 | 0.00 | 0.16 | 0.03 | 94 | 1016.7 |
| 20260904190639 | 52 | 209 | 0.0 | 0.0 | 0.00 | 0.16 | 0.03 | 94 | 1016.7 |
| 20260904190138 | 52 | 209 | 0.0 | 0.0 | 0.00 | 0.16 | 0.03 | 94 | 1016.8 |
| 20260904185634 | 52 | 209 | 0.0 | 0.0 | 0.00 | 0.16 | 0.03 | 94 | 1016.7 |
| 20260904185137 | 52 | 209 | 0.0 | 1.0 | 0.00 | 0.16 | 0.03 | 94 | 1016.8 |
| 20260904184855 | 52 | 209 | 0.0 | 2.0 | 0.00 | 0.16 | 0.03 | 94 | 1016.6 |
| 20260904184124 | 52 | 209 | 0.0 | 3.0 | 0.00 | 0.16 | 0.03 | 95 | 1016.6 |
| 20260904183613 | 52 | 209 | 0.0 | 3.0 | 0.00 | 0.16 | 0.03 | 95 | 1016.6 |
| 20260904183115 | 52 | 0 | 0.0 | 4.0 | 0.00 | 0.16 | 0.03 | 95 | 1016.6 |
| 20260904182832 | 51 | 165 | 0.0 | 5.0 | 0.00 | 0.16 | 0.03 | 96 | 1016.5 |
| 20260904182109 | 51 | 155 | 2.0 | 5.0 | 0.00 | 0.16 | 0.03 | 97 | 1016.5 |
| 20260904181610 | 51 | 325 | 0.0 | 2.0 | 0.00 | 0.16 | 0.03 | 97 | 1016.4 |
| 20260904181113 | 51 | 325 | 0.0 | 4.0 | 0.00 | 0.16 | 0.03 | 97 | 1016.4 |
| 20260904180605 | 51 | 12 | 0.0 | 4.0 | 0.00 | 0.16 | 0.03 | 97 | 1016.5 |
| 20260904180100 | 51 | 311 | 0.0 | 2.0 | 0.00 | 0.16 | 0.03 | 97 | 1016.4 |
| 20260904175551 | 50 | 311 | 0.0 | 2.0 | 0.00 | 0.16 | 0.03 | 97 | 1016.4 |
| 20260904175045 | 50 | 311 | 0.0 | 0.0 | 0.00 | 0.16 | 0.03 | 97 | 1016.3 |
| 20260904174806 | 50 | 311 | 0.0 | 0.0 | 0.00 | 0.16 | 0.03 | 97 | 1016.2 |
| 20260904174041 | 50 | 311 | 0.0 | 0.0 | 0.00 | 0.16 | 0.03 | 97 | 1016.0 |
| 20260904173805 | 50 | 311 | 0.0 | 0.0 | 0.00 | 0.16 | 0.03 | 97 | 1015.9 |
| 20260904173041 | 50 | 311 | 0.0 | 1.0 | 0.00 | 0.16 | 0.03 | 97 | 1015.8 |
| 20260904172541 | 49 | 311 | 0.0 | 1.0 | 0.00 | 0.16 | 0.03 | 97 | 1015.7 |
| 20260904172039 | 49 | 300 | 0.0 | 2.0 | 0.00 | 0.16 | 0.03 | 98 | 1015.7 |
| 20260904171524 | 49 | 300 | 0.0 | 2.0 | 0.00 | 0.16 | 0.03 | 98 | 1015.7 |
| 20260904171242 | 49 | 302 | 0.0 | 0.0 | 0.00 | 0.16 | 0.03 | 98 | 1015.6 |
| 20260904170512 | 49 | 302 | 0.0 | 0.0 | 0.00 | 0.16 | 0.03 | 97 | 1015.5 |
| 20260904170012 | 49 | 302 | 0.0 | 2.0 | 0.00 | 0.16 | 0.03 | 97 | 1015.4 |
| 20260904165512 | 49 | 302 | 0.0 | 2.0 | 0.00 | 0.16 | 0.03 | 97 | 1015.3 |
| 20260904165241 | 49 | 302 | 0.0 | 0.0 | 0.00 | 0.16 | 0.03 | 97 | 1015.3 |
| 20260904164730 | 49 | 302 | 0.0 | 0.0 | 0.00 | 0.16 | 0.03 | 97 | 1015.3 |
| 20260904164007 | 49 | 302 | 0.0 | 0.0 | 0.00 | 0.16 | 0.03 | 97 | 1015.1 |
| 20260904163458 | 49 | 302 | 0.0 | 1.0 | 0.00 | 0.16 | 0.03 | 98 | 1015.0 |
| 20260904162953 | 48 | 302 | 0.0 | 1.0 | 0.00 | 0.16 | 0.03 | 98 | 1015.0 |
| 20260904162442 | 48 | 302 | 0.0 | 0.0 | 0.00 | 0.16 | 0.03 | 98 | 1014.9 |
| 20260904161945 | 48 | 302 | 0.0 | 0.0 | 0.00 | 0.16 | 0.03 | 98 | 1014.9 |
| 20260904161438 | 48 | 302 | 0.0 | 0.0 | 0.00 | 0.17 | 0.03 | 98 | 1014.7 |
| 20260904160938 | 48 | 302 | 0.0 | 0.0 | 0.01 | 0.17 | 0.03 | 98 | 1014.6 |
| 20260904160423 | 48 | 302 | 0.0 | 0.0 | 0.01 | 0.17 | 0.03 | 98 | 1014.6 |
| 20260904155923 | 48 | 302 | 0.0 | 0.0 | 0.01 | 0.17 | 0.03 | 97 | 1014.5 |
| 20260904155419 | 48 | 302 | 0.0 | 0.0 | 0.01 | 0.17 | 0.03 | 97 | 1014.4 |
| 20260904154914 | 48 | 302 | 0.0 | 0.0 | 0.02 | 0.17 | 0.03 | 97 | 1014.4 |
| 20260904154633 | 48 | 302 | 0.0 | 0.0 | 0.02 | 0.17 | 0.03 | 97 | 1014.4 |
| 20260904153914 | 48 | 302 | 0.0 | 0.0 | 0.02 | 0.17 | 0.03 | 97 | 1014.3 |
| 20260904153633 | 48 | 302 | 0.0 | 0.0 | 0.02 | 0.17 | 0.03 | 97 | 1014.4 |
| 20260904152914 | 48 | 302 | 0.0 | 0.0 | 0.02 | 0.17 | 0.03 | 98 | 1014.5 |
| 20260904152411 | 48 | 302 | 0.0 | 0.0 | 0.02 | 0.17 | 0.03 | 98 | 1014.4 |
| 20260904151904 | 47 | 302 | 0.0 | 0.0 | 0.02 | 0.17 | 0.03 | 98 | 1014.4 |
| 20260904151624 | 47 | 302 | 0.0 | 0.0 | 0.02 | 0.17 | 0.03 | 98 | 1014.4 |
| 20260904150904 | 47 | 302 | 0.0 | 0.0 | 0.01 | 0.16 | 0.02 | 97 | 1014.4 |
| 20260904150350 | 47 | 302 | 0.0 | 0.0 | 0.01 | 0.16 | 0.02 | 97 | 1014.4 |
| 20260904145850 | 47 | 302 | 0.0 | 0.0 | 0.02 | 0.16 | 0.02 | 97 | 1014.4 |
| 20260904145350 | 47 | 302 | 0.0 | 0.0 | 0.02 | 0.16 | 0.02 | 97 | 1014.3 |
| 20260904144849 | 47 | 302 | 0.0 | 0.0 | 0.01 | 0.16 | 0.01 | 97 | 1014.3 |
| 20260904144345 | 47 | 302 | 0.0 | 0.0 | 0.01 | 0.16 | 0.01 | 97 | 1014.1 |
| 20260904144107 | 47 | 302 | 0.0 | 0.0 | 0.01 | 0.16 | 0.01 | 97 | 1014.0 |
| 20260904143341 | 46 | 302 | 0.0 | 0.0 | 0.01 | 0.16 | 0.01 | 97 | 1014.0 |
| 20260904142837 | 46 | 302 | 0.0 | 0.0 | 0.01 | 0.16 | 0.01 | 97 | 1013.9 |
| 20260904142821 | 46 | 302 | 0.0 | 0.0 | 0.01 | 0.16 | 0.01 | 97 | 1013.7 |
| 20260904142058 | 46 | 302 | 0.0 | 0.0 | 0.01 | 0.16 | 0.01 | 97 | 1013.6 |
| 20260904141555 | 46 | 302 | 0.0 | 0.0 | 0.01 | 0.17 | 0.01 | 97 | 1013.5 |
| 20260904140836 | 46 | 302 | 0.0 | 0.0 | 0.01 | 0.17 | 0.01 | 97 | 1013.5 |
| 20260904140332 | 46 | 302 | 0.0 | 0.0 | 0.01 | 0.18 | 0.01 | 97 | 1013.5 |
| 20260904140054 | 46 | 302 | 0.0 | 0.0 | 0.00 | 0.17 | 0.00 | 97 | 1013.4 |
| 20260904135317 | 46 | 302 | 0.0 | 0.0 | 0.00 | 0.17 | 0.00 | 97 | 1013.3 |
| 20260904134811 | 46 | 302 | 0.0 | 0.0 | 0.00 | 0.18 | 0.00 | 97 | 1013.3 |
| 20260904134311 | 46 | 302 | 0.0 | 0.0 | 0.00 | 0.18 | 0.00 | 97 | 1013.3 |
| 20260904133813 | 46 | 302 | 0.0 | 0.0 | 0.00 | 0.18 | 0.00 | 97 | 1013.1 |
| 20260904133307 | 46 | 302 | 0.0 | 0.0 | 0.00 | 0.18 | 0.00 | 96 | 1013.1 |
| 20260904132807 | 46 | 302 | 0.0 | 0.0 | 0.00 | 0.18 | 0.00 | 96 | 1013.1 |
| 20260904132751 | 46 | 302 | 0.0 | 0.0 | 0.00 | 0.19 | 0.00 | 96 | 1013.1 |
| 20260904132020 | 46 | 302 | 0.0 | 0.0 | 0.00 | 0.19 | 0.00 | 96 | 1013.0 |
| 20260904131258 | 45 | 302 | 0.0 | 0.0 | 0.00 | 0.19 | 0.00 | 96 | 1013.0 |
| 20260904130758 | 45 | 302 | 0.0 | 0.0 | 0.00 | 0.19 | 0.00 | 96 | 1012.9 |
| 20260904130258 | 45 | 302 | 0.0 | 0.0 | 0.00 | 0.19 | 0.00 | 96 | 1012.9 |
| 20260904125801 | 45 | 302 | 0.0 | 0.0 | 0.00 | 0.19 | 0.00 | 96 | 1012.8 |
| 20260904125519 | 46 | 302 | 0.0 | 0.0 | 0.00 | 0.19 | 0.00 | 100 | 1012.7 |
| 20260904124753 | 46 | 302 | 0.0 | 0.0 | 0.00 | 0.19 | 0.00 | 96 | 1012.7 |
| 20260904124249 | 46 | 302 | 0.0 | 0.0 | 0.00 | 0.19 | 0.00 | 96 | 1012.4 |
| 20260904123744 | 46 | 302 | 0.0 | 0.0 | 0.00 | 0.19 | 0.00 | 96 | 1012.4 |
| 20260904123239 | 46 | 302 | 0.0 | 0.0 | 0.00 | 0.19 | 0.00 | 96 | 1012.5 |
| 20260904122729 | 46 | 302 | 0.0 | 0.0 | 0.00 | 0.19 | 0.00 | 96 | 1012.7 |
| 20260904122214 | 46 | 302 | 0.0 | 0.0 | 0.00 | 0.19 | 0.00 | 96 | 1012.6 |
| 20260904121714 | 46 | 302 | 0.0 | 2.0 | 0.00 | 0.19 | 0.00 | 96 | 1012.6 |
| 20260904121214 | 46 | 302 | 0.0 | 6.0 | 0.00 | 0.19 | 0.00 | 96 | 1012.6 |
| 20260904120714 | 45 | 296 | 0.0 | 9.0 | 0.00 | 0.19 | 0.00 | 97 | 1012.5 |
| 20260904120210 | 45 | 350 | 1.0 | 10.0 | 0.00 | 0.19 | 0.00 | 97 | 1012.5 |
| 20260904115930 | 45 | 233 | 2.0 | 10.0 | 0.00 | 0.19 | 0.00 | 97 | 1012.4 |
| 20260904115210 | 44 | 348 | 1.0 | 6.0 | 0.00 | 0.19 | 0.00 | 97 | 1012.0 |
| 20260904114710 | 44 | 299 | 1.0 | 5.0 | 0.00 | 0.19 | 0.00 | 97 | 1011.7 |
| 20260904114656 | 44 | 294 | 0.0 | 3.0 | 0.00 | 0.19 | 0.00 | 97 | 1011.6 |
| 20260904113706 | 44 | 207 | 0.0 | 0.0 | 0.00 | 0.19 | 0.00 | 97 | 1011.4 |
| 20260904113424 | 44 | 207 | 0.0 | 0.0 | 0.00 | 0.19 | 0.00 | 97 | 1011.1 |
| 20260904112920 | 44 | 207 | 0.0 | 0.0 | 0.00 | 0.19 | 0.00 | 97 | 1011.0 |
| 20260904112156 | 44 | 207 | 0.0 | 0.0 | 0.00 | 0.19 | 0.00 | 97 | 1010.7 |
| 20260904111656 | 44 | 207 | 0.0 | 0.0 | 0.00 | 0.19 | 0.00 | 97 | 1010.8 |
| 20260904111156 | 44 | 207 | 0.0 | 0.0 | 0.00 | 0.19 | 0.00 | 97 | 1010.6 |
| 20260904110641 | 44 | 207 | 0.0 | 0.0 | 0.00 | 0.19 | 0.00 | 97 | 1010.8 |
| 20260904110141 | 44 | 207 | 0.0 | 0.0 | 0.00 | 0.19 | 0.00 | 97 | 1010.8 |
| 20260904105631 | 44 | 207 | 0.0 | 0.0 | 0.00 | 0.19 | 0.00 | 97 | 1010.2 |
| 20260904105129 | 45 | 207 | 0.0 | 0.0 | 0.00 | 0.19 | 0.00 | 97 | 1009.7 |
| 20260904104612 | 45 | 207 | 0.0 | 0.0 | 0.00 | 0.19 | 0.00 | 97 | 1009.3 |
| 20260904104107 | 45 | 207 | 0.0 | 0.0 | 0.00 | 0.19 | 0.00 | 97 | 1009.3 |
| 20260904103546 | 45 | 207 | 0.0 | 0.0 | 0.00 | 0.19 | 0.00 | 97 | 1009.8 |
| 20260904103044 | 45 | 207 | 0.0 | 1.0 | 0.00 | 0.19 | 0.00 | 97 | 1009.7 |
| 20260904102542 | 44 | 207 | 0.0 | 1.0 | 0.00 | 0.19 | 0.00 | 97 | 1009.5 |
| 20260904102306 | 44 | 207 | 0.0 | 0.0 | 0.00 | 0.19 | 0.00 | 97 | 1009.2 |
| 20260904101539 | 44 | 207 | 0.0 | 0.0 | 0.00 | 0.19 | 0.00 | 97 | 1009.3 |
| 20260904101027 | 44 | 207 | 0.0 | 0.0 | 0.00 | 0.19 | 0.00 | 97 | 1009.2 |
| 20260904100527 | 44 | 207 | 0.0 | 0.0 | 0.00 | 0.19 | 0.00 | 97 | 1009.1 |
| 20260904100023 | 44 | 207 | 0.0 | 0.0 | 0.00 | 0.19 | 0.00 | 97 | 1008.9 |
| 20260904095523 | 45 | 207 | 0.0 | 0.0 | 0.00 | 0.19 | 0.00 | 97 | 1008.9 |
| 20260904095023 | 45 | 207 | 0.0 | 0.0 | 0.00 | 0.19 | 0.00 | 97 | 1008.9 |
| 20260904094523 | 45 | 207 | 0.0 | 0.0 | 0.00 | 0.19 | 0.00 | 97 | 1008.9 |
| 20260904094024 | 45 | 207 | 0.0 | 0.0 | 0.00 | 0.19 | 0.00 | 97 | 1009.0 |
| 20260904093523 | 45 | 207 | 0.0 | 0.0 | 0.00 | 0.19 | 0.00 | 97 | 1009.0 |
| 20260904093018 | 45 | 207 | 0.0 | 0.0 | 0.00 | 0.19 | 0.00 | 97 | 1008.9 |
| 20260904092508 | 45 | 207 | 0.0 | 0.0 | 0.00 | 0.19 | 0.00 | 97 | 1008.8 |
| 20260904092006 | 45 | 207 | 0.0 | 0.0 | 0.00 | 0.19 | 0.00 | 97 | 1008.9 |
| 20260904091726 | 45 | 207 | 0.0 | 0.0 | 0.00 | 0.19 | 0.00 | 97 | 1009.1 |
| 20260904090951 | 45 | 207 | 0.0 | 0.0 | 0.00 | 0.19 | 0.00 | 97 | 1009.2 |
| 20260904090444 | 45 | 207 | 0.0 | 0.0 | 0.00 | 0.19 | 0.00 | 97 | 1009.3 |
| 20260904085944 | 45 | 207 | 0.0 | 0.0 | 0.00 | 0.19 | 0.00 | 97 | 1009.3 |
| 20260904085434 | 45 | 207 | 0.0 | 0.0 | 0.00 | 0.19 | 0.00 | 97 | 1009.3 |
| 20260904084934 | 45 | 207 | 0.0 | 0.0 | 0.00 | 0.19 | 0.00 | 97 | 1009.5 |
| 20260904084434 | 45 | 207 | 0.0 | 0.0 | 0.00 | 0.19 | 0.00 | 97 | 1009.3 |
| 20260904083933 | 45 | 207 | 0.0 | 0.0 | 0.00 | 0.19 | 0.00 | 96 | 1009.5 |
| 20260904083420 | 45 | 207 | 0.0 | 0.0 | 0.00 | 0.19 | 0.00 | 96 | 1009.6 |
| 20260904083132 | 45 | 207 | 0.0 | 0.0 | 0.00 | 0.19 | 0.00 | 96 | 1009.6 |
| 20260904082410 | 45 | 207 | 0.0 | 0.0 | 0.00 | 0.19 | 0.00 | 96 | 1009.7 |
| 20260904081910 | 45 | 207 | 0.0 | 0.0 | 0.00 | 0.19 | 0.00 | 96 | 1009.7 |
| 20260904081410 | 45 | 207 | 0.0 | 1.0 | 0.00 | 0.19 | 0.00 | 96 | 1009.7 |
| 20260904081128 | 45 | 207 | 0.0 | 1.0 | 0.00 | 0.19 | 0.00 | 96 | 1009.7 |
| 20260904080401 | 45 | 207 | 0.0 | 0.0 | 0.00 | 0.19 | 0.00 | 96 | 1009.8 |
| 20260904075856 | 45 | 207 | 0.0 | 0.0 | 0.00 | 0.19 | 0.00 | 96 | 1009.8 |
| 20260904075340 | 46 | 207 | 0.0 | 0.0 | 0.00 | 0.19 | 0.00 | 96 | 1009.8 |
| 20260904074840 | 46 | 207 | 0.0 | 0.0 | 0.00 | 0.19 | 0.00 | 96 | 1009.8 |
| 20260904074341 | 46 | 207 | 0.0 | 0.0 | 0.00 | 0.19 | 0.00 | 96 | 1009.8 |
| 20260904074105 | 46 | 207 | 0.0 | 1.0 | 0.00 | 0.19 | 0.00 | 96 | 1009.9 |
| 20260904073336 | 46 | 207 | 0.0 | 1.0 | 0.00 | 0.19 | 0.00 | 96 | 1009.9 |
| 20260904072837 | 46 | 207 | 0.0 | 0.0 | 0.00 | 0.19 | 0.00 | 96 | 1009.9 |
| 20260904072334 | 46 | 207 | 0.0 | 1.0 | 0.00 | 0.19 | 0.00 | 96 | 1009.8 |
| 20260904071824 | 46 | 207 | 0.0 | 1.0 | 0.00 | 0.19 | 0.00 | 96 | 1009.9 |
| 20260904071316 | 47 | 207 | 0.0 | 0.0 | 0.00 | 0.19 | 0.00 | 96 | 1010.1 |
| 20260904070816 | 47 | 207 | 0.0 | 0.0 | 0.00 | 0.19 | 0.00 | 96 | 1009.9 |
| 20260904070317 | 47 | 207 | 0.0 | 0.0 | 0.00 | 0.19 | 0.00 | 96 | 1010.0 |
| 20260904065817 | 47 | 207 | 0.0 | 0.0 | 0.00 | 0.19 | 0.00 | 96 | 1010.1 |
| 20260904065307 | 47 | 207 | 0.0 | 3.0 | 0.00 | 0.19 | 0.00 | 96 | 1010.0 |
| 20260904064803 | 47 | 207 | 0.0 | 3.0 | 0.00 | 0.19 | 0.00 | 96 | 1010.0 |
| 20260904064302 | 47 | 207 | 0.0 | 0.0 | 0.00 | 0.19 | 0.00 | 96 | 1010.0 |
| 20260904063758 | 47 | 207 | 0.0 | 0.0 | 0.00 | 0.19 | 0.00 | 96 | 1010.1 |
| 20260904063518 | 47 | 207 | 0.0 | 0.0 | 0.00 | 0.19 | 0.00 | 96 | 1010.2 |
| 20260904062742 | 47 | 207 | 0.0 | 0.0 | 0.00 | 0.19 | 0.00 | 96 | 1010.1 |
| 20260904062243 | 47 | 207 | 0.0 | 0.0 | 0.00 | 0.19 | 0.00 | 96 | 1010.2 |
| 20260904062002 | 47 | 207 | 0.0 | 0.0 | 0.00 | 0.19 | 0.00 | 96 | 1010.3 |
| 20260904061243 | 47 | 207 | 0.0 | 0.0 | 0.00 | 0.19 | 0.00 | 96 | 1010.6 |
| 20260904061007 | 47 | 207 | 0.0 | 0.0 | 0.00 | 0.19 | 0.00 | 96 | 1010.7 |
| 20260904060238 | 47 | 207 | 0.0 | 0.0 | 0.00 | 0.19 | 0.00 | 96 | 1010.6 |
| 20260904055739 | 47 | 207 | 0.0 | 0.0 | 0.00 | 0.19 | 0.19 | 96 | 1010.6 |
| 20260904055239 | 47 | 207 | 0.0 | 0.0 | 0.00 | 0.19 | 0.19 | 96 | 1010.7 |
| 20260904054742 | 47 | 207 | 0.0 | 0.0 | 0.00 | 0.19 | 0.19 | 96 | 1010.7 |
| 20260904054229 | 47 | 207 | 0.0 | 0.0 | 0.00 | 0.19 | 0.19 | 96 | 1010.8 |
| 20260904053729 | 47 | 207 | 0.0 | 0.0 | 0.00 | 0.19 | 0.19 | 96 | 1010.8 |
| 20260904053219 | 47 | 207 | 0.0 | 0.0 | 0.00 | 0.19 | 0.19 | 96 | 1010.9 |
| 20260904052714 | 47 | 207 | 0.0 | 0.0 | 0.00 | 0.19 | 0.19 | 96 | 1011.0 |
| 20260904052217 | 47 | 207 | 0.0 | 0.0 | 0.00 | 0.19 | 0.19 | 96 | 1011.0 |
| 20260904051937 | 48 | 207 | 0.0 | 0.0 | 0.00 | 0.19 | 0.19 | 96 | 1010.9 |
| 20260904051215 | 48 | 207 | 0.0 | 0.0 | 0.00 | 0.19 | 0.19 | 96 | 1011.0 |
| 20260904050716 | 48 | 207 | 0.0 | 0.0 | 0.00 | 0.19 | 0.19 | 96 | 1011.1 |
| 20260904050215 | 48 | 207 | 0.0 | 0.0 | 0.00 | 0.19 | 0.19 | 96 | 1011.2 |
| 20260904045710 | 48 | 207 | 0.0 | 0.0 | 0.00 | 0.19 | 0.19 | 96 | 1011.1 |
| 20260904045201 | 48 | 207 | 0.0 | 0.0 | 0.00 | 0.19 | 0.19 | 96 | 1011.2 |
| 20260904044704 | 48 | 207 | 0.0 | 0.0 | 0.00 | 0.19 | 0.19 | 96 | 1011.2 |
| 20260904044201 | 48 | 207 | 0.0 | 0.0 | 0.00 | 0.19 | 0.19 | 95 | 1011.4 |
| 20260904043659 | 48 | 207 | 0.0 | 0.0 | 0.00 | 0.19 | 0.19 | 95 | 1011.5 |
| 20260904043404 | 48 | 207 | 0.0 | 0.0 | 0.00 | 0.19 | 0.19 | 95 | 1011.5 |
| 20260904043245 | 48 | 207 | 0.0 | 0.0 | 0.00 | 0.19 | 0.19 | 95 | 1011.5 |
| 20260904042151 | 48 | 207 | 0.0 | 0.0 | 0.00 | 0.19 | 0.19 | 95 | 1011.6 |
| 20260904041651 | 49 | 207 | 0.0 | 0.0 | 0.00 | 0.19 | 0.19 | 95 | 1011.6 |
| 20260904041152 | 49 | 207 | 0.0 | 0.0 | 0.00 | 0.19 | 0.19 | 95 | 1011.4 |
| 20260904040655 | 49 | 207 | 0.0 | 0.0 | 0.00 | 0.19 | 0.19 | 95 | 1011.5 |
| 20260904040150 | 49 | 207 | 0.0 | 1.0 | 0.00 | 0.19 | 0.19 | 95 | 1011.6 |
| 20260904035647 | 49 | 207 | 0.0 | 1.0 | 0.00 | 0.19 | 0.19 | 95 | 1011.6 |
| 20260904035404 | 49 | 207 | 0.0 | 1.0 | 0.00 | 0.19 | 0.19 | 94 | 1011.8 |
| 20260904034645 | 49 | 205 | 0.0 | 0.0 | 0.00 | 0.19 | 0.19 | 94 | 1011.7 |
| 20260904034138 | 49 | 205 | 0.0 | 0.0 | 0.00 | 0.19 | 0.19 | 94 | 1011.8 |
| 20260904033638 | 50 | 205 | 0.0 | 0.0 | 0.00 | 0.19 | 0.19 | 94 | 1011.9 |
| 20260904033138 | 50 | 205 | 0.0 | 0.0 | 0.00 | 0.19 | 0.19 | 94 | 1012.0 |
| 20260904032638 | 50 | 205 | 0.0 | 0.0 | 0.00 | 0.19 | 0.19 | 94 | 1012.1 |
| 20260904032141 | 50 | 205 | 0.0 | 0.0 | 0.00 | 0.19 | 0.19 | 94 | 1012.0 |
| 20260904031616 | 51 | 205 | 0.0 | 0.0 | 0.00 | 0.19 | 0.19 | 94 | 1011.9 |
| 20260904031113 | 51 | 205 | 0.0 | 1.0 | 0.00 | 0.19 | 0.19 | 94 | 1012.0 |
| 20260904030608 | 51 | 205 | 0.0 | 1.0 | 0.00 | 0.19 | 0.19 | 94 | 1012.0 |
| 20260904030104 | 51 | 205 | 0.0 | 0.0 | 0.00 | 0.19 | 0.19 | 93 | 1012.1 |
| 20260904025603 | 51 | 205 | 0.0 | 1.0 | 0.00 | 0.19 | 0.19 | 93 | 1012.1 |
| 20260904025049 | 52 | 205 | 0.0 | 1.0 | 0.00 | 0.19 | 0.19 | 93 | 1012.0 |
| 20260904024804 | 52 | 205 | 0.0 | 0.0 | 0.00 | 0.19 | 0.19 | 93 | 1012.1 |
| 20260904024256 | 52 | 205 | 0.0 | 0.0 | 0.00 | 0.19 | 0.19 | 93 | 1012.0 |
| 20260904023542 | 53 | 205 | 0.0 | 0.0 | 0.00 | 0.19 | 0.19 | 93 | 1012.0 |
| 20260904023039 | 53 | 205 | 0.0 | 0.0 | 0.00 | 0.19 | 0.19 | 94 | 1011.9 |
| 20260904022524 | 53 | 205 | 0.0 | 0.0 | 0.00 | 0.19 | 0.19 | 94 | 1011.9 |
| 20260904022019 | 53 | 205 | 0.0 | 0.0 | 0.00 | 0.19 | 0.19 | 94 | 1011.9 |
| 20260904021519 | 53 | 205 | 0.0 | 0.0 | 0.00 | 0.19 | 0.19 | 94 | 1011.9 |
| 20260904021009 | 54 | 205 | 0.0 | 0.0 | 0.00 | 0.19 | 0.19 | 94 | 1011.9 |
| 20260904020738 | 54 | 205 | 0.0 | 0.0 | 0.00 | 0.19 | 0.19 | 94 | 1012.0 |
| 20260904020010 | 54 | 205 | 0.0 | 1.0 | 0.00 | 0.19 | 0.19 | 94 | 1011.9 |
| 20260904015505 | 54 | 205 | 0.0 | 1.0 | 0.00 | 0.19 | 0.19 | 94 | 1012.0 |
| 20260904015005 | 55 | 205 | 0.0 | 2.0 | 0.00 | 0.19 | 0.19 | 95 | 1012.0 |
| 20260904014505 | 55 | 205 | 0.0 | 2.0 | 0.00 | 0.19 | 0.19 | 94 | 1011.9 |
| 20260904013956 | 55 | 205 | 0.0 | 0.0 | 0.00 | 0.19 | 0.19 | 94 | 1011.9 |
| 20260904013455 | 55 | 205 | 0.0 | 0.0 | 0.00 | 0.19 | 0.19 | 95 | 1011.9 |
| 20260904012936 | 55 | 205 | 0.0 | 0.0 | 0.00 | 0.19 | 0.19 | 94 | 1012.0 |
| 20260904012437 | 55 | 205 | 0.0 | 0.0 | 0.00 | 0.19 | 0.19 | 94 | 1011.9 |
| 20260904011936 | 55 | 205 | 0.0 | 0.0 | 0.00 | 0.19 | 0.19 | 94 | 1012.0 |
| 20260904011426 | 56 | 205 | 0.0 | 0.0 | 0.00 | 0.19 | 0.19 | 94 | 1012.1 |
| 20260904011408 | 56 | 205 | 0.0 | 0.0 | 0.00 | 0.19 | 0.19 | 94 | 1012.0 |
| 20260904010425 | 56 | 205 | 0.0 | 0.0 | 0.00 | 0.19 | 0.19 | 94 | 1011.9 |
| 20260904005913 | 56 | 205 | 0.0 | 0.0 | 0.00 | 0.20 | 0.19 | 94 | 1011.9 |
| 20260904005406 | 56 | 205 | 0.0 | 0.0 | 0.00 | 0.20 | 0.19 | 94 | 1012.0 |
| 20260904004906 | 56 | 205 | 0.0 | 0.0 | 0.00 | 0.20 | 0.19 | 94 | 1012.0 |
| 20260904004407 | 56 | 205 | 0.0 | 0.0 | 0.00 | 0.21 | 0.19 | 94 | 1012.1 |
| 20260904003903 | 56 | 205 | 0.0 | 0.0 | 0.00 | 0.21 | 0.19 | 94 | 1012.4 |
| 20260904003402 | 56 | 205 | 0.0 | 0.0 | 0.00 | 0.22 | 0.19 | 94 | 1012.2 |
| 20260904002847 | 56 | 205 | 0.0 | 0.0 | 0.00 | 0.22 | 0.19 | 94 | 1012.4 |
| 20260904002350 | 57 | 205 | 0.0 | 0.0 | 0.00 | 0.23 | 0.19 | 94 | 1012.5 |
| 20260904001847 | 57 | 205 | 0.0 | 0.0 | 0.00 | 0.23 | 0.19 | 94 | 1012.2 |
| 20260904001343 | 57 | 205 | 0.0 | 0.0 | 0.00 | 0.24 | 0.19 | 94 | 1012.2 |
| 20260904000842 | 57 | 205 | 0.0 | 0.0 | 0.00 | 0.25 | 0.19 | 94 | 1012.1 |
| 20260904000343 | 57 | 205 | 0.0 | 2.0 | 0.00 | 0.27 | 0.19 | 94 | 1012.1 |
| 20260903235844 | 57 | 205 | 0.0 | 2.0 | 0.00 | 0.28 | 0.19 | 95 | 1012.2 |
| 20260903235343 | 57 | 205 | 0.0 | 0.0 | 0.00 | 0.29 | 0.19 | 95 | 1012.1 |
| 20260903234839 | 57 | 205 | 0.0 | 0.0 | 0.00 | 0.32 | 0.19 | 94 | 1012.2 |
| 20260903234338 | 57 | 205 | 0.0 | 0.0 | 0.00 | 0.34 | 0.19 | 94 | 1012.1 |
| 20260903233839 | 57 | 205 | 0.0 | 0.0 | 0.00 | 0.35 | 0.19 | 94 | 1012.4 |
| 20260903233554 | 57 | 205 | 0.0 | 0.0 | 0.00 | 0.36 | 0.19 | 94 | 1012.2 |
| 20260903232834 | 57 | 205 | 0.0 | 0.0 | 0.00 | 0.38 | 0.19 | 94 | 1012.2 |
| 20260903232334 | 57 | 205 | 0.0 | 0.0 | 0.00 | 0.39 | 0.19 | 94 | 1012.1 |
| 20260903231829 | 57 | 205 | 0.0 | 0.0 | 0.00 | 0.40 | 0.19 | 94 | 1012.2 |
| 20260903231806 | 57 | 205 | 0.0 | 0.0 | 0.00 | 0.41 | 0.19 | 94 | 1012.4 |
| 20260903230826 | 57 | 205 | 0.0 | 3.0 | 0.00 | 0.41 | 0.19 | 92 | 1012.4 |
| 20260903230325 | 57 | 205 | 0.0 | 3.0 | 0.00 | 0.42 | 0.19 | 91 | 1012.2 |
| 20260903225820 | 58 | 153 | 0.0 | 0.0 | 0.00 | 0.43 | 0.19 | 94 | 1012.4 |
| 20260903225320 | 58 | 153 | 0.0 | 0.0 | 0.00 | 0.43 | 0.19 | 94 | 1012.1 |
| 20260903224822 | 58 | 153 | 0.0 | 0.0 | 0.00 | 0.43 | 0.19 | 94 | 1012.2 |
| 20260903224311 | 58 | 153 | 0.0 | 0.0 | 0.01 | 0.43 | 0.19 | 94 | 1012.2 |